Weather History for KDHN - March, 2012

Change the Weather History Date:

Friday, March 9, 2012

  Actual Average Record
Temperature  
Mean Temperature 58 °F 58 °F  
Max Temperature 66 °F 70 °F 83 °F (1951)
Min Temperature 50 °F 46 °F 32 °F (1940)
Degree Days  
Heating Degree Days 6 8  
Month to date heating degree days 78  
Since 1 July heating degree days 1637  
Cooling Degree Days 0 1  
Month to date cooling degree days 9  
Year to date cooling degree days 19  
Growing Degree Days 8 (Base 50)    
Moisture  
Dew Point 59 °F    
Average Humidity 91    
Maximum Humidity 100    
Minimum Humidity 61    
Precipitation  
Precipitation 0.06 in 0.18 in 1.85 in (2011)
Month to date precipitation 1.44  
Year to date precipitation 10.84  
Sea Level Pressure  
Sea Level Pressure 30.23 in    
Wind  
Wind Speed 6 mph (NNW)    
Max Wind Speed 13 mph    
Max Gust Speed 21 mph    
Visibility 7 miles    
Events Fog , Rain    
T = Trace of Precipitation, MM = Missing Value Source: NWS Daily Summary

Daily Weather History Graph

Daily Weather History Graph

Search for Another Location

Airport or City:

Trip Planner

Search our weather history database for the weather conditions in past years. The results will help you decide how hot, cold, wet, or windy it might be!

Date:

Astronomy

Mar. 09, 2012 Rise Set
Actual Time 5:58 AM CST 5:46 PM CST
Civil Twilight 5:34 AM CST 6:10 PM CST
Nautical Twilight 5:06 AM CST 6:38 PM CST
Astronomical Twilight 4:38 AM CST 7:06 PM CST
Moon 7:32 PM CST (3/9) 6:26 AM CST (3/9)
Length of Visible Light 12h 36m
Length of Day
11h 47m
Full, 97% of the Moon is Illuminated
Mar 9
Full
Mar 14
Last Quarter
Mar 22
New
Mar 30
First Quarter
Apr 6
Full

Hourly Weather History & Observations

Time (CST) Temp. Dew Point Humidity Pressure Visibility Wind Dir Wind Speed Gust Speed Precip Events Conditions
12:23 AM 62.6 °F 62.6 °F 100% 30.19 in 8.0 mi WSW 5.8 mph - N/A   Scattered Clouds
12:32 AM 62.6 °F 62.6 °F 100% 30.19 in 4.0 mi WSW 5.8 mph - N/A   Mostly Cloudy
12:36 AM 62.6 °F 62.6 °F 100% 30.19 in 1.8 mi WSW 8.1 mph - N/A   Mostly Cloudy
12:53 AM 62.1 °F 62.1 °F 100% 30.18 in 0.5 mi SW 8.1 mph - N/A Fog Fog
1:14 AM 62.6 °F 62.6 °F 100% 30.17 in 1.2 mi SW 8.1 mph - N/A   Overcast
1:28 AM 62.6 °F 62.6 °F 100% 30.17 in 2.0 mi SSW 6.9 mph - N/A   Overcast
1:39 AM 62.6 °F 62.6 °F 100% 30.16 in 4.0 mi SSW 8.1 mph - N/A   Overcast
1:53 AM 62.1 °F 62.1 °F 100% 30.15 in 4.0 mi SW 8.1 mph - N/A   Overcast
2:53 AM 63.0 °F 62.1 °F 97% 30.16 in 9.0 mi WSW 6.9 mph - N/A   Overcast
3:53 AM 63.0 °F 62.1 °F 97% 30.17 in 10.0 mi SW 3.5 mph - N/A   Overcast
4:14 AM 62.6 °F 60.8 °F 94% 30.19 in 10.0 mi Calm Calm - N/A   Partly Cloudy
4:44 AM 62.6 °F 62.6 °F 100% 30.19 in 9.0 mi WNW 3.5 mph - N/A   Overcast
4:53 AM 62.1 °F 62.1 °F 100% 30.19 in 9.0 mi NW 4.6 mph - N/A   Overcast
5:04 AM 62.6 °F 62.6 °F 100% 30.20 in 1.8 mi WNW 5.8 mph - N/A   Overcast
5:17 AM 62.6 °F 62.6 °F 100% 30.21 in 2.0 mi WNW 4.6 mph - N/A   Overcast
6:23 AM 62.6 °F 62.6 °F 100% 30.22 in 3.0 mi Calm Calm - N/A   Overcast
6:36 AM 62.6 °F 62.6 °F 100% 30.22 in 2.5 mi Calm Calm - N/A   Overcast
6:53 AM 63.0 °F 63.0 °F 100% 30.22 in 3.0 mi Calm Calm - N/A   Overcast
7:15 AM 62.6 °F 62.6 °F 100% 30.24 in 2.0 mi North 4.6 mph - N/A   Overcast
7:53 AM 64.0 °F 63.0 °F 96% 30.24 in 2.0 mi East 4.6 mph - N/A   Overcast
8:53 AM 60.8 °F 60.8 °F 100% 30.27 in 1.8 mi NE 6.9 mph - N/A Rain Heavy Rain
9:01 AM 60.8 °F 60.8 °F 100% 30.27 in 3.0 mi NE 6.9 mph - 0.02 in Rain Light Rain
9:29 AM 62.6 °F 60.8 °F 94% 30.26 in 10.0 mi ENE 8.1 mph - 0.03 in Rain Light Rain
9:37 AM 62.6 °F 60.8 °F 94% 30.26 in 10.0 mi ENE 4.6 mph - 0.03 in   Overcast
9:53 AM 62.1 °F 60.1 °F 93% 30.25 in 10.0 mi East 5.8 mph - 0.03 in   Overcast
10:04 AM 62.6 °F 60.8 °F 94% 30.25 in 10.0 mi East 8.1 mph - N/A   Overcast
10:14 AM 62.6 °F 60.8 °F 94% 30.27 in 10.0 mi NE 6.9 mph - N/A   Overcast
10:53 AM 64.0 °F 61.0 °F 90% 30.26 in 10.0 mi NE 3.5 mph - N/A   Overcast
11:46 AM 64.4 °F 60.8 °F 88% 30.24 in 10.0 mi Calm Calm - 0.01 in Rain Light Rain
11:53 AM 64.0 °F 61.0 °F 90% 30.23 in 10.0 mi South 3.5 mph - 0.02 in Rain Light Rain
12:17 PM 64.4 °F 62.6 °F 94% 30.25 in 10.0 mi NW 5.8 mph - 0.00 in Rain Light Rain
12:35 PM 64.4 °F 62.6 °F 94% 30.24 in 10.0 mi NNW 6.9 mph - 0.01 in   Mostly Cloudy
12:53 PM 64.9 °F 61.0 °F 87% 30.22 in 10.0 mi NNW 3.5 mph - 0.01 in Rain Light Rain
1:16 PM 64.4 °F 62.6 °F 94% 30.22 in 10.0 mi North 6.9 mph - 0.00 in   Overcast
1:51 PM 66.2 °F 60.8 °F 83% 30.21 in 10.0 mi North 5.8 mph - 0.00 in   Mostly Cloudy
1:53 PM 66.0 °F 61.0 °F 84% 30.21 in 10.0 mi North 6.9 mph - 0.00 in   Mostly Cloudy
2:18 PM 64.4 °F 60.8 °F 88% 30.23 in 10.0 mi NNW 9.2 mph - 0.00 in   Overcast
2:53 PM 64.9 °F 61.0 °F 87% 30.22 in 10.0 mi NNW 5.8 mph - 0.00 in   Overcast
3:53 PM 64.9 °F 60.1 °F 84% 30.22 in 10.0 mi North 8.1 mph - N/A   Overcast
4:53 PM 63.0 °F 59.0 °F 87% 30.24 in 10.0 mi North 10.4 mph - N/A   Overcast
5:53 PM 61.0 °F 57.0 °F 87% 30.26 in 10.0 mi North 12.7 mph 20.7 mph N/A   Overcast
6:11 PM 60.8 °F 57.2 °F 88% 30.27 in 10.0 mi North 10.4 mph - N/A   Overcast
6:53 PM 60.1 °F 55.9 °F 86% 30.27 in 10.0 mi North 12.7 mph - N/A   Overcast
7:24 PM 59.0 °F 53.6 °F 82% 30.28 in 10.0 mi North 10.4 mph - N/A   Scattered Clouds
7:53 PM 57.0 °F 52.0 °F 83% 30.30 in 10.0 mi North 11.5 mph - N/A   Partly Cloudy
8:53 PM 54.0 °F 41.0 °F 62% 30.32 in 10.0 mi North 9.2 mph - N/A   Clear
9:53 PM 53.1 °F 39.9 °F 61% 30.32 in 10.0 mi North 8.1 mph - N/A   Clear
10:53 PM 51.1 °F 39.0 °F 63% 30.31 in 10.0 mi North 4.6 mph - N/A   Clear
11:53 PM 50.0 °F 37.0 °F 61% 30.31 in 10.0 mi NNE 5.8 mph - N/A   Clear